Flag for Bolivia Weather past 2 weeks in Santa Cruz, Bolivia

Now
61 °F

Passing clouds.


Feels Like: 61 °F
Forecast: 62 / 79 °F
Wind: 6 mph from North

Location: Viru-Viru

Current Time: Jul 29, 2014 at 12:01:58 AM

Latest Report: Jul 28, 2014 at 11:00 PM


Visibility: N/A

Pressure: 30.07 "Hg

Humidity: 94%

Dew point: 59 °F

Location of Santa CruzLocation

Historic Weather in Santa Cruz — Graph

°F

Santa Cruz temperature yesterday

Maximum temperature yesterday: 73 °F (at 1:00 PM)
Minimum temperature yesterday: 59 °F (at 1:00 AM)
Average temperature yesterday: 64 °F

Past Weeks' High & Low Weather Summary

 TemperatureHumidityPressure
High88 °F (Jul 17, 2:00 PM)100% (Jul 14, 1:00 AM)30.30 "Hg (Jul 14, 1:00 AM)
Low48 °F (Jul 24, 5:00 AM)41% (Jul 19, 4:00 PM)29.74 "Hg (Jul 23, 4:00 PM)
Average67 °F76%30.04 "Hg
* Reported Jul 13 11:00 PM — Jul 28 11:00 PM, Santa Cruz, Weather by CustomWeather, © 2014

Note: Actual official high and low records may vary slightly from our data, if they occured in-between our weather recording intervals... More about our weather records

Advertising

Santa Cruz weather history for previous 24 hours

 ConditionsComfort  
Time TempWeatherWind HumidityBarometerVisibility
11:00 PM
Jul 28
61 °FPassing clouds.6 mph94%30.07 "HgN/A
10:00 PM63 °FClear.9 mph88%30.07 "HgN/A
9:00 PM64 °FClear.9 mph88%30.07 "HgN/A
8:00 PM64 °FClear.7 mph83%30.07 "HgN/A
7:00 PM66 °FClear.9 mph78%30.04 "HgN/A
6:00 PM68 °FPassing clouds.10 mph69%30.04 "HgN/A
5:00 PM70 °FPartly sunny.9 mph64%30.04 "HgN/A
4:00 PM72 °FPartly sunny.9 mph61%30.04 "HgN/A
3:00 PM72 °FPartly sunny.12 mph57%30.07 "HgN/A
2:00 PM72 °FBroken clouds.9 mph53%30.07 "HgN/A
1:00 PM73 °FPartly sunny.9 mph47%30.12 "HgN/A
12:00 PM70 °FBroken clouds.7 mph53%30.15 "HgN/A
11:00 AM68 °FMostly cloudy.2 mph56%30.18 "HgN/A
10:00 AM66 °FMostly cloudy.2 mph60%30.18 "HgN/A
9:00 AM63 °FMostly cloudy.3 mph68%30.18 "HgN/A
8:00 AM61 °FMostly cloudy.2 mph83%30.18 "HgN/A
7:00 AM59 °FMostly cloudy.3 mph88%30.15 "HgN/A
6:00 AM59 °FMostly cloudy.3 mph94%30.12 "HgN/A
5:00 AM59 °FOvercast.2 mph94%30.12 "HgN/A
4:00 AM59 °FOvercast.2 mph94%30.12 "HgN/A
3:00 AM59 °FMostly cloudy.2 mph88%30.12 "HgN/A
2:00 AM59 °FMostly cloudy.No wind94%30.12 "HgN/A
1:00 AM59 °FMostly cloudy.2 mph88%30.15 "HgN/A
12:00 AM61 °FMostly cloudy.2 mph83%30.15 "HgN/A
Weather by CustomWeather, © 2014

See weather overviewHow to use our weather pages